DW7933 Weather Reports


Display with metric or nautical units.
time (UTC)temp
F
wind
direction
speed
MPH
gust
MPH
rain 1hr
in
rain 24hr
in
rain mn
in
humidity
%
barometer
mb
20210920233015 83 176 0.0 4.0 0.00 0.40 0.00 11 1014.1
20210920231559 83 291 0.0 0.0 0.00 0.40 0.00 34 1014.2
20210920230100 84 229 0.0 0.0 0.00 0.40 0.00 43 1014.4
20210920224607 83 229 0.0 1.0 0.00 0.40 0.00 54 1014.4
20210920223031 85 245 0.0 1.0 0.00 0.50 0.00 66 1014.4
20210920221510 86 155 0.0 1.0 0.00 0.50 0.00 72 1014.1
20210920220006 88 203 1.0 5.0 0.00 0.50 0.00 77 1014.0
20210920214611 88 164 2.0 5.0 0.00 0.50 0.00 76 1013.9
20210920213210 87 293 3.0 5.0 0.00 0.61 0.00 75 1013.7
20210920211611 88 134 0.0 6.0 0.00 0.61 0.00 75 1013.9
20210920210038 86 231 2.0 5.0 0.00 0.61 0.00 73 1014.1
20210920204525 86 262 0.0 1.0 0.00 0.61 0.00 71 1014.0
20210920203038 86 281 0.0 4.0 0.00 0.61 0.00 66 1014.0
20210920201609 87 305 0.0 1.0 0.00 0.61 0.00 75 1014.0
20210920200114 87 257 0.0 3.0 0.00 0.61 0.00 76 1014.1
20210920194612 86 214 0.0 2.0 0.00 0.61 0.00 71 1014.1
20210920193031 85 295 0.0 4.0 0.00 0.61 0.00 59 1014.3
20210920191515 86 294 0.0 0.0 0.00 0.61 0.00 72 1014.5
20210920190046 87 160 1.0 4.0 0.00 0.61 0.00 74 1014.7
20210920184519 0 0.0 0.0 0.00 0.61 0.00
20210920183053 85 123 0.0 5.0 0.00 0.61 0.04 69 1015.1
20210920181530 85 262 3.0 7.0 0.00 0.61 0.04 69 1015.4
20210920180139 86 295 2.0 3.0 0.00 0.61 0.04 71 1015.6
20210920174708 87 41 0.0 4.0 0.00 0.61 0.04 69 1015.8
20210920173140 86 125 4.0 8.0 0.00 0.61 0.04 74 1015.9
20210920171624 86 166 5.0 8.0 0.00 0.61 0.04 72 1016.0
20210920170043 85 141 2.0 6.0 0.00 0.61 0.04 68 1016.1
20210920164517 83 8 0.0 3.0 0.00 0.61 0.04 63 1016.2
20210920161653 83 105 3.0 6.0 0.00 0.61 0.04 56 1016.3
20210920160130 82 120 2.0 5.0 0.00 0.61 0.04 11 1016.5
20210920154616 81 236 0.0 0.0 0.00 0.61 0.04 11 1016.6
20210920153202 81 204 1.0 6.0 0.00 0.61 0.04 11 1016.6
20210920151633 80 242 0.0 4.0 0.00 0.61 0.04 11 1016.5
20210920150108 80 214 2.0 4.0 0.00 0.61 0.04 11 1016.5
20210920144624 78 115 0.0 3.0 0.00 0.61 0.04 11 1016.3
20210920141525 77 105 1.0 4.0 0.00 0.61 0.04 11 1016.0
20210920140103 76 141 0.0 3.0 0.00 0.61 0.04 11 1016.0
20210920134521 76 203 2.0 4.0 0.00 0.61 0.04 11 1015.9
20210920131540 75 188 0.0 0.0 0.00 0.61 0.04 11 1015.7
20210920130022 74 242 0.0 0.0 0.00 0.61 0.04 11 1015.6
20210920124546 74 158 0.0 3.0 0.00 0.61 0.04 11 1015.5
20210920121711 73 115 0.0 0.0 0.00 0.61 0.04 11 1015.4
20210920120104 73 154 0.0 1.0 0.00 0.61 0.04 11 1015.3
20210920114537 73 148 0.0 0.0 0.00 0.61 0.04 11 1015.3
20210920113052 73 82 0.0 1.0 0.00 0.61 0.04 11 1015.1
20210920111537 73 134 0.0 1.0 0.00 0.61 0.04 11 1015.2
20210920110029 73 85 0.0 0.0 0.00 0.61 0.04 11 1015.0
20210920104537 73 85 0.0 0.0 0.00 0.61 0.04 11 1015.0
20210920103130 73 84 0.0 0.0 0.00 0.61 0.04 11 1014.9
20210920101542 73 84 0.0 1.0 0.00 0.61 0.04 11 1014.8
20210920100044 73 131 0.0 0.0 0.00 0.61 0.04 11 1014.7
20210920094529 73 131 0.0 0.0 0.00 0.61 0.04 11 1014.7
20210920093026 73 131 0.0 0.0 0.00 0.61 0.04 11 1014.7
20210920091532 73 131 0.0 0.0 0.00 0.61 0.04 11 1014.5
20210920090046 73 131 0.0 0.0 0.01 0.61 0.04 11 1014.4
20210920084618 73 131 0.0 0.0 0.01 0.61 0.04 11 1014.4
20210920083053 73 131 0.0 0.0 0.01 0.61 0.04 11 1014.3
20210920081517 73 131 0.0 0.0 0.03 0.61 0.04 11 1014.4
20210920080014 73 132 0.0 0.0 0.02 0.60 0.03 11 1014.3
20210920074639 73 132 0.0 0.0 0.03 0.60 0.03 11 1014.4
20210920073113 73 132 0.0 0.0 0.03 0.60 0.03 11 1014.5
20210920071710 73 133 0.0 0.0 0.01 0.57 0.01 11 1014.5
20210920070101 73 131 0.0 0.0 0.01 0.57 0.01 11 1014.7
20210920064519 73 131 0.0 0.0 0.00 0.56 0.00 11 1014.7
20210920063024 73 134 0.0 2.0 0.00 0.56 0.00 11 1014.9
20210920061613 73 90 0.0 2.0 0.00 0.56 0.56 11 1015.0
20210920060136 73 133 0.0 3.0 0.00 0.56 0.56 11 1015.0
20210920054610 73 132 3.0 5.0 0.00 0.56 0.56 11 1015.0
20210920053104 73 86 0.0 5.0 0.00 0.56 0.56 11 1015.2
20210920050202 73 127 2.0 6.0 0.00 0.56 0.56 11 1015.3
20210920044612 74 115 0.0 4.0 0.00 0.56 0.56 11 1015.6
20210920043107 74 101 2.0 4.0 0.00 0.56 0.56 11 1015.6
20210920041557 74 106 1.0 3.0 0.00 0.56 0.56 11 1015.6
20210920040044 74 122 1.0 3.0 0.00 0.56 0.56 11 1015.8
20210920034638 74 105 2.0 4.0 0.00 0.56 0.56 11 1015.5
20210920033056 74 99 1.0 2.0 0.00 0.56 0.56 11 1015.7
20210920031523 74 132 0.0 2.0 0.01 0.56 0.56 11 1015.8
20210920030100 74 113 1.0 2.0 0.02 0.56 0.56 11 1015.8
20210920024608 74 104 0.0 3.0 0.03 0.56 0.56 11 1015.6
20210920023107 73 99 0.0 1.0 0.05 0.56 0.56 11 1015.7
20210920021552 73 127 0.0 1.0 0.06 0.56 0.56 11 1015.6
20210920020055 73 108 0.0 0.0 0.06 0.55 0.55 11 1015.6
20210920014523 73 108 0.0 0.0 0.07 0.54 0.54 11 1015.8
20210920013051 73 108 0.0 0.0 0.06 0.52 0.52 11 1015.8
20210920011506 73 109 0.0 0.0 0.07 0.50 0.50 11 1015.7
20210920010010 73 109 0.0 0.0 0.09 0.49 0.49 11 1015.6
20210920004606 73 109 0.0 0.0 0.11 0.47 0.47 11 1015.5
20210920003107 73 108 0.0 0.0 0.11 0.46 0.46 11 1015.4
20210920001543 73 110 0.0 0.0 0.09 0.43 0.43 11 1015.2
20210920000035 73 110 0.0 0.0 0.07 0.40 0.40 11 1015.2
20210919234516 73 109 0.0 0.0 0.03 0.36 0.36 11 1015.1